Location: Zagreb
(45.8000°N, 16.0000°E)
Time: 01:13:15
(UTC+01:00)

SR - Visible Passes

Search period start: 26 January 2020 00:00
Search period end: 05 February 2020 00:00
Orbit: 574 x 882 km, 66.7° (Epoch: 25 January)

Date Brightness Start Highest point End Pass type
(mag) Time Alt. Az. Time Alt. Az. Time Alt. Az.
26 Jan ? 04:38:19 12° N 04:41:13 17° NNE 04:44:47 10° ENE visible
26 Jan ? 06:18:54 10° NNW 06:24:31 65° NE 06:29:38 10° SE visible
27 Jan ? 03:50:07 12° NNE 03:50:45 13° NNE 03:53:08 10° NE visible
27 Jan ? 05:29:32 11° NNW 05:34:36 38° NE 05:39:28 10° ESE visible
28 Jan ? 04:41:24 16° N 04:44:30 24° NE 04:48:47 10° E visible
28 Jan ? 06:21:40 10° NW 06:27:15 75° WSW 06:32:19 10° SSE visible
29 Jan ? 03:53:19 16° NNE 03:54:11 17° NNE 03:57:37 10° ENE visible
29 Jan ? 05:32:45 14° NNW 05:37:32 61° NE 05:42:36 10° SE visible
30 Jan ? 03:05:19 11° NE 03:05:19 11° NE 03:05:54 10° NE visible
30 Jan ? 04:44:45 22° N 04:47:36 36° NE 04:52:23 10° ESE visible
30 Jan ? 06:24:39 10° NW 06:29:47 42° WSW 06:34:31 10° S visible
31 Jan ? 03:56:51 23° NNE 03:57:28 23° NE 04:01:40 10° E visible
31 Jan ? 05:36:17 19° NW 05:40:17 79° WSW 05:45:20 10° SSE visible
01 Feb ? 03:09:03 14° NE 03:09:03 14° NE 03:10:27 10° ENE visible
01 Feb ? 04:48:30 36° N 04:50:33 58° NE 04:55:35 10° SE visible
01 Feb ? 06:27:59 10° WNW 06:32:09 23° WSW 06:36:04 10° SSW visible
01 Feb ? 19:17:12 10° SSE 19:17:18 10° SSE 19:17:18 10° SSE visible
02 Feb ? 04:00:51 34° NE 04:00:51 34° NE 04:05:18 10° ESE visible
02 Feb ? 05:40:19 26° WNW 05:42:50 44° WSW 05:47:34 10° S visible
02 Feb ? 18:29:52 10° SE 18:30:24 11° SE 18:30:24 11° SE visible
02 Feb ? 20:08:05 10° SSW 20:09:54 21° SSW 20:09:54 21° SSW visible
03 Feb ? 03:13:19 15° ENE 03:13:19 15° ENE 03:14:32 10° E visible
03 Feb ? 04:52:47 72° NW 04:53:19 84° WSW 04:58:20 10° SSE visible
03 Feb ? 06:32:23 10° WNW 06:34:22 12° W 06:36:18 10° WSW visible
03 Feb ? 19:18:52 10° S 19:22:57 38° SSE 19:22:57 38° SSE visible
03 Feb ? 21:01:07 10° WSW 21:02:27 17° WSW 21:02:27 17° WSW visible
04 Feb ? 04:05:26 36° ESE 04:05:26 36° ESE 04:08:32 10° SE visible
04 Feb ? 05:44:54 24° WSW 05:45:13 24° WSW 05:49:12 10° SSW visible
04 Feb ? 18:30:22 10° SSE 18:35:01 25° ESE 18:35:55 24° E visible
04 Feb ? 20:10:51 10° SW 20:15:25 51° WSW 20:15:25 51° WSW visible
